TimeAKDT,TemperatureF,Dew PointF,Humidity,Sea Level PressureIn,VisibilityMPH,Wind Direction,Wind SpeedMPH,Gust SpeedMPH,PrecipitationIn,Events,Conditions,WindDirDegrees,DateUTC
12:14 AM,26.6,26.6,100,29.79,1.0,Calm,Calm,-,0.01,Snow,Light Snow,0,2012-10-30 08:14:00
12:40 AM,26.6,26.6,100,29.79,2.0,Calm,Calm,-,0.03,Snow,Light Snow,0,2012-10-30 08:40:00
12:53 AM,27.0,26.1,96,29.80,2.5,Calm,Calm,-,0.03,Snow,Light Snow,0,2012-10-30 08:53:00
12:59 AM,26.6,26.6,100,29.79,3.0,Calm,Calm,-,0.00,Snow,Light Snow,0,2012-10-30 08:59:00
1:08 AM,26.6,24.8,93,29.79,2.5,Calm,Calm,-,0.00,Snow,Light Snow,0,2012-10-30 09:08:00
1:42 AM,28.4,24.8,86,29.78,1.5,Calm,Calm,-,0.01,Snow,Light Snow,0,2012-10-30 09:42:00
1:53 AM,28.0,24.1,85,29.79,1.2,Calm,Calm,-,0.01,Snow,Light Snow,0,2012-10-30 09:53:00
2:09 AM,26.6,24.8,93,29.78,2.0,Calm,Calm,-,0.00,Snow,Light Snow,0,2012-10-30 10:09:00
2:22 AM,26.6,24.8,93,29.78,3.0,Calm,Calm,-,0.01,Snow,Light Snow,0,2012-10-30 10:22:00
3:53 AM,27.0,23.0,85,29.77,4.0,Calm,Calm,-,0.00,Snow,Light Snow,0,2012-10-30 11:53:00
4:03 AM,26.6,23.0,86,29.76,2.5,Calm,Calm,-,0.00,Snow,Light Snow,0,2012-10-30 12:03:00
4:53 AM,26.1,23.0,88,29.76,2.0,Calm,Calm,-,0.00,Snow,Light Snow,0,2012-10-30 12:53:00
5:53 AM,26.1,23.0,88,29.74,2.0,SSW,4.6,-,0.00,Snow,Light Snow,200,2012-10-30 13:53:00
6:10 AM,26.6,21.2,80,29.73,2.0,Calm,Calm,-,0.00,Snow,Light Snow,0,2012-10-30 14:10:00
6:27 AM,26.6,21.2,80,29.72,6.0,East,3.5,-,0.00,Snow,Light Snow,90,2012-10-30 14:27:00
6:53 AM,25.0,21.9,88,29.72,10.0,SE,3.5,-,0.00,,Mostly Cloudy,130,2012-10-30 14:53:00
7:53 AM,25.0,21.9,88,29.70,10.0,Calm,Calm,-,N/A,,Overcast,0,2012-10-30 15:53:00
8:53 AM,24.1,21.0,88,29.69,10.0,Calm,Calm,-,N/A,,Mostly Cloudy,0,2012-10-30 16:53:00
9:53 AM,23.0,16.0,74,29.68,10.0,Calm,Calm,-,N/A,,Mostly Cloudy,0,2012-10-30 17:53:00
10:53 AM,21.9,15.1,75,29.66,10.0,Calm,Calm,-,N/A,,Scattered Clouds,0,2012-10-30 18:53:00
11:53 AM,25.0,15.1,66,29.65,10.0,Calm,Calm,-,N/A,,Mostly Cloudy,0,2012-10-30 19:53:00
12:53 PM,27.0,15.1,61,29.63,10.0,East,3.5,-,N/A,,Mostly Cloudy,100,2012-10-30 20:53:00
1:53 PM,30.9,10.0,42,29.61,10.0,NNW,11.5,-,N/A,,Clear,330,2012-10-30 21:53:00
2:53 PM,32.0,10.0,40,29.60,10.0,NNW,16.1,-,N/A,,Mostly Cloudy,330,2012-10-30 22:53:00
3:53 PM,32.0,9.0,38,29.58,10.0,NNW,15.0,-,N/A,,Mostly Cloudy,330,2012-10-30 23:53:00
4:53 PM,32.0,10.0,40,29.56,10.0,NNW,13.8,20.7,N/A,,Mostly Cloudy,330,2012-10-31 00:53:00
5:53 PM,30.9,8.1,38,29.55,10.0,NNW,13.8,20.7,N/A,,Mostly Cloudy,330,2012-10-31 01:53:00
6:53 PM,30.0,8.1,40,29.55,10.0,NW,15.0,-,N/A,,Mostly Cloudy,320,2012-10-31 02:53:00
7:53 PM,30.0,8.1,40,29.54,10.0,NW,17.3,24.2,N/A,,Scattered Clouds,320,2012-10-31 03:53:00
8:53 PM,28.9,9.0,43,29.55,10.0,NNW,12.7,20.7,N/A,,Partly Cloudy,330,2012-10-31 04:53:00
9:53 PM,30.0,9.0,41,29.53,10.0,NNW,16.1,23.0,N/A,,Mostly Cloudy,340,2012-10-31 05:53:00
10:53 PM,28.9,8.1,41,29.54,10.0,NNW,11.5,-,N/A,,Mostly Cloudy,330,2012-10-31 06:53:00
11:53 PM,28.9,8.1,41,29.52,10.0,North,15.0,28.8,N/A,,Mostly Cloudy,350,2012-10-31 07:53:00